| time (UTC) | temp C | wind direction | speed KPH | gust KPH | rain 1hr cm | rain 24hr cm | rain mn cm | humidity % | barometer mb |
| 20260506084542 | 20 | 198 | 9.7 | 22.5 | 0.00 | 0.00 | 0.00 | 72 | 1012.4 |
| 20260506084031 | 20 | 223 | 4.8 | 19.3 | 0.00 | 0.00 | 0.00 | 71 | 1012.5 |
| 20260506083532 | 20 | 197 | 8.0 | 19.3 | 0.00 | 0.00 | 0.00 | 71 | 1012.4 |
| 20260506083043 | 20 | 188 | 6.4 | 14.5 | 0.00 | 0.00 | 0.00 | 71 | 1012.3 |
| 20260506082531 | 20 | 218 | 4.8 | 14.5 | 0.00 | 0.00 | 0.00 | 70 | 1012.2 |
| 20260506082032 | 20 | 165 | 4.8 | 14.5 | 0.00 | 0.00 | 0.00 | 70 | 1012.3 |
| 20260506081624 | 20 | 189 | 8.0 | 20.9 | 0.00 | 0.00 | 0.00 | 70 | 1012.2 |
| 20260506081542 | 20 | 189 | 8.0 | 20.9 | 0.00 | 0.00 | 0.00 | 70 | 1012.2 |
| 20260506081035 | 20 | 222 | 4.8 | 20.9 | 0.00 | 0.00 | 0.00 | 69 | 1012.2 |
| 20260506080532 | 20 | 210 | 6.4 | 20.9 | 0.00 | 0.00 | 0.00 | 69 | 1012.1 |
| 20260506073529 | 20 | 180 | 8.0 | 12.9 | 0.00 | 0.00 | 0.00 | 68 | 1012.4 |
| 20260506073039 | 20 | 213 | 4.8 | 12.9 | 0.00 | 0.00 | 0.00 | 67 | 1012.4 |
| 20260506072529 | 20 | 173 | 4.8 | 16.1 | 0.00 | 0.00 | 0.00 | 67 | 1012.4 |
| 20260506072028 | 20 | 209 | 4.8 | 19.3 | 0.00 | 0.00 | 0.00 | 66 | 1012.2 |
| 20260506071545 | 20 | 163 | 8.0 | 19.3 | 0.00 | 0.00 | 0.00 | 66 | 1012.4 |
| 20260506071033 | 21 | 206 | 4.8 | 16.1 | 0.00 | 0.00 | 0.00 | 66 | 1012.7 |
| 20260506070531 | 21 | 216 | 6.4 | 12.9 | 0.00 | 0.00 | 0.00 | 65 | 1013.0 |
| 20260506062033 | 21 | 200 | 6.4 | 19.3 | 0.00 | 0.00 | 0.00 | 60 | 1013.4 |
| 20260506061541 | 21 | 225 | 9.7 | 24.1 | 0.00 | 0.00 | 0.00 | 60 | 1013.5 |
| 20260506061029 | 21 | 185 | 8.0 | 24.1 | 0.00 | 0.00 | 0.00 | 60 | 1013.5 |
| 20260506060532 | 21 | 194 | 6.4 | 20.9 | 0.00 | 0.00 | 0.00 | 59 | 1013.5 |
| 20260506051033 | 21 | 190 | 3.2 | 9.7 | 0.00 | 0.00 | 0.00 | 54 | 1013.4 |
| 20260506050532 | 21 | 196 | 1.6 | 8.0 | 0.00 | 0.00 | 0.00 | 54 | 1013.4 |
| 20260506045030 | 21 | 243 | 3.2 | 12.9 | 0.00 | 0.00 | 0.00 | 53 | 1012.9 |
| 20260506044557 | 21 | 145 | 3.2 | 12.9 | 0.00 | 0.00 | 0.00 | 53 | 1012.8 |
| 20260506044029 | 21 | 142 | 3.2 | 11.3 | 0.00 | 0.00 | 0.00 | 53 | 1013.0 |
| 20260506043529 | 21 | 178 | 1.6 | 9.7 | 0.00 | 0.00 | 0.00 | 53 | 1013.3 |
| 20260506043044 | 21 | 153 | 3.2 | 11.3 | 0.00 | 0.00 | 0.00 | 52 | 1013.4 |
| 20260506042531 | 21 | 203 | 3.2 | 11.3 | 0.00 | 0.00 | 0.00 | 52 | 1013.3 |
| 20260506042029 | 21 | 209 | 1.6 | 8.0 | 0.00 | 0.00 | 0.00 | 52 | 1013.4 |
| 20260506041542 | 21 | 163 | 1.6 | 8.0 | 0.00 | 0.00 | 0.00 | 52 | 1013.4 |
| 20260506041028 | 21 | 233 | 3.2 | 8.0 | 0.00 | 0.00 | 0.00 | 52 | 1013.5 |
| 20260506040530 | 21 | 169 | 1.6 | 6.4 | 0.00 | 0.00 | 0.00 | 51 | 1013.3 |
| 20260506040046 | 21 | 170 | 3.2 | 9.7 | 0.00 | 0.00 | 0.00 | 51 | 1013.3 |
| 20260506035532 | 21 | 246 | 3.2 | 9.7 | 0.00 | 0.00 | 0.00 | 50 | 1013.3 |
| 20260506035028 | 21 | 146 | 1.6 | 11.3 | 0.00 | 0.00 | 0.00 | 50 | 1013.3 |
| 20260506034539 | 21 | 163 | 3.2 | 11.3 | 0.00 | 0.00 | 0.00 | 49 | 1013.3 |
| 20260506034031 | 21 | 210 | 1.6 | 9.7 | 0.00 | 0.00 | 0.00 | 49 | 1013.3 |
| 20260506033531 | 21 | 116 | 3.2 | 9.7 | 0.00 | 0.00 | 0.00 | 48 | 1013.3 |
| 20260506033047 | 21 | 132 | 1.6 | 11.3 | 0.00 | 0.00 | 0.00 | 47 | 1013.3 |
| 20260506032531 | 21 | 0 | 3.2 | 11.3 | 0.00 | 0.00 | 0.00 | 47 | 1013.4 |
| 20260506032031 | 21 | 156 | 3.2 | 8.0 | 0.00 | 0.00 | 0.00 | 46 | 1013.3 |
| 20260506031542 | 21 | 133 | 0.0 | 9.7 | 0.00 | 0.00 | 0.00 | 46 | 1013.3 |
| 20260506031030 | 22 | 142 | 3.2 | 11.3 | 0.00 | 0.00 | 0.00 | 45 | 1013.4 |
| 20260506030528 | 22 | 173 | 4.8 | 11.3 | 0.00 | 0.00 | 0.00 | 45 | 1013.3 |
| 20260506030042 | 22 | 170 | 3.2 | 11.3 | 0.00 | 0.00 | 0.00 | 45 | 1013.4 |
| 20260506025530 | 22 | 169 | 3.2 | 11.3 | 0.00 | 0.00 | 0.00 | 45 | 1013.3 |
| 20260506025033 | 22 | 138 | 1.6 | 8.0 | 0.00 | 0.00 | 0.00 | 45 | 1013.3 |
| 20260506024544 | 22 | 180 | 1.6 | 12.9 | 0.00 | 0.00 | 0.00 | 45 | 1013.4 |
| 20260506024029 | 22 | 167 | 3.2 | 14.5 | 0.00 | 0.00 | 0.00 | 45 | 1013.5 |
| 20260506023531 | 22 | 169 | 3.2 | 14.5 | 0.00 | 0.00 | 0.00 | 45 | 1013.4 |
| 20260506023049 | 22 | 0 | 3.2 | 9.7 | 0.00 | 0.00 | 0.00 | 45 | 1013.3 |
| 20260506022528 | 22 | 0 | 1.6 | 11.3 | 0.00 | 0.00 | 0.00 | 45 | 1013.3 |
| 20260506022031 | 22 | 219 | 3.2 | 11.3 | 0.00 | 0.00 | 0.00 | 45 | 1013.2 |
| 20260506021555 | 22 | 150 | 3.2 | 8.0 | 0.00 | 0.00 | 0.00 | 46 | 1013.2 |
| 20260506021029 | 22 | 189 | 1.6 | 6.4 | 0.00 | 0.00 | 0.00 | 45 | 1013.2 |
| 20260506020528 | 22 | 211 | 0.0 | 8.0 | 0.00 | 0.00 | 0.00 | 45 | 1013.2 |
| 20260506020042 | 22 | 215 | 1.6 | 8.0 | 0.00 | 0.00 | 0.00 | 46 | 1013.2 |
| 20260506015532 | 22 | 177 | 1.6 | 6.4 | 0.00 | 0.00 | 0.00 | 45 | 1013.2 |
| 20260506015031 | 22 | 178 | 1.6 | 9.7 | 0.00 | 0.00 | 0.00 | 45 | 1013.1 |
| 20260506014543 | 22 | 177 | 0.0 | 14.5 | 0.00 | 0.00 | 0.00 | 45 | 1013.0 |
| 20260506014030 | 22 | 0 | 1.6 | 14.5 | 0.00 | 0.00 | 0.00 | 45 | 1013.0 |
| 20260506013529 | 22 | 202 | 3.2 | 14.5 | 0.00 | 0.00 | 0.00 | 45 | 1013.1 |
| 20260506013040 | 22 | 203 | 1.6 | 9.7 | 0.00 | 0.00 | 0.00 | 45 | 1013.1 |
| 20260506012531 | 22 | 202 | 1.6 | 9.7 | 0.00 | 0.00 | 0.00 | 45 | 1013.0 |
| 20260506012030 | 22 | 229 | 4.8 | 9.7 | 0.00 | 0.00 | 0.00 | 45 | 1012.9 |
| 20260506011538 | 22 | 191 | 1.6 | 9.7 | 0.00 | 0.00 | 0.00 | 45 | 1012.8 |
| 20260506011030 | 22 | 199 | 1.6 | 9.7 | 0.00 | 0.00 | 0.00 | 44 | 1012.8 |
| 20260506010529 | 22 | 204 | 3.2 | 11.3 | 0.00 | 0.00 | 0.00 | 44 | 1012.8 |
| 20260506010048 | 22 | 219 | 1.6 | 16.1 | 0.00 | 0.00 | 0.00 | 44 | 1012.7 |
| 20260506005528 | 23 | 213 | 4.8 | 16.1 | 0.00 | 0.00 | 0.00 | 44 | 1012.8 |
| 20260506005028 | 23 | 217 | 6.4 | 16.1 | 0.00 | 0.00 | 0.00 | 43 | 1012.9 |
| 20260506004547 | 23 | 196 | 6.4 | 16.1 | 0.00 | 0.00 | 0.00 | 43 | 1012.8 |
| 20260506004028 | 23 | 211 | 4.8 | 16.1 | 0.00 | 0.00 | 0.00 | 42 | 1012.9 |
| 20260506003529 | 23 | 238 | 6.4 | 17.7 | 0.00 | 0.00 | 0.00 | 42 | 1013.0 |
| 20260506003042 | 23 | 213 | 8.0 | 17.7 | 0.00 | 0.00 | 0.00 | 42 | 1012.9 |
| 20260506002528 | 23 | 198 | 4.8 | 14.5 | 0.00 | 0.00 | 0.00 | 42 | 1012.9 |
| 20260506002030 | 23 | 211 | 6.4 | 14.5 | 0.00 | 0.00 | 0.00 | 41 | 1012.8 |
| 20260506001546 | 23 | 207 | 6.4 | 12.9 | 0.00 | 0.00 | 0.00 | 41 | 1012.8 |
| 20260506001029 | 23 | 208 | 4.8 | 11.3 | 0.00 | 0.00 | 0.00 | 41 | 1012.9 |
| 20260506000531 | 23 | 205 | 6.4 | 16.1 | 0.00 | 0.00 | 0.00 | 40 | 1012.9 |
| 20260506000042 | 24 | 225 | 4.8 | 20.9 | 0.00 | 0.00 | 0.00 | 40 | 1012.9 |
| 20260505235528 | 24 | 215 | 8.0 | 20.9 | 0.00 | 0.00 | 0.00 | 40 | 1012.9 |
| 20260505235029 | 24 | 197 | 8.0 | 16.1 | 0.00 | 0.00 | 0.00 | 40 | 1012.8 |
| 20260505234604 | 24 | 212 | 6.4 | 17.7 | 0.00 | 0.00 | 0.00 | 40 | 1012.9 |
| 20260505234030 | 24 | 227 | 6.4 | 17.7 | 0.00 | 0.00 | 0.00 | 40 | 1012.9 |
| 20260505233530 | 24 | 224 | 6.4 | 16.1 | 0.00 | 0.00 | 0.00 | 40 | 1012.9 |
| 20260505233043 | 25 | 202 | 4.8 | 14.5 | 0.00 | 0.00 | 0.00 | 40 | 1012.8 |
| 20260505232528 | 25 | 192 | 3.2 | 14.5 | 0.00 | 0.00 | 0.00 | 40 | 1012.8 |
| 20260505232029 | 25 | 229 | 4.8 | 14.5 | 0.00 | 0.00 | 0.00 | 40 | 1012.8 |
| 20260505231541 | 25 | 215 | 4.8 | 14.5 | 0.00 | 0.00 | 0.00 | 39 | 1012.8 |
| 20260505231030 | 25 | 134 | 0.0 | 8.0 | 0.00 | 0.00 | 0.00 | 40 | 1012.7 |
| 20260505230530 | 25 | 0 | 1.6 | 11.3 | 0.00 | 0.00 | 0.00 | 39 | 1012.6 |
| 20260505230039 | 25 | 189 | 3.2 | 11.3 | 0.00 | 0.00 | 0.00 | 38 | 1012.4 |
| 20260505225528 | 25 | 138 | 4.8 | 12.9 | 0.00 | 0.00 | 0.00 | 38 | 1012.4 |
| 20260505225030 | 25 | 220 | 6.4 | 14.5 | 0.00 | 0.00 | 0.00 | 38 | 1012.7 |
| 20260505224539 | 25 | 217 | 4.8 | 14.5 | 0.00 | 0.00 | 0.00 | 38 | 1012.8 |
| 20260505224033 | 25 | 231 | 4.8 | 12.9 | 0.00 | 0.00 | 0.00 | 38 | 1012.8 |
| 20260505223530 | 25 | 208 | 4.8 | 12.9 | 0.00 | 0.00 | 0.00 | 39 | 1012.8 |
| 20260505223044 | 25 | 105 | 3.2 | 12.9 | 0.00 | 0.00 | 0.00 | 38 | 1012.8 |
| 20260505222530 | 25 | 215 | 4.8 | 12.9 | 0.00 | 0.00 | 0.00 | 39 | 1012.8 |
| 20260505222032 | 25 | 192 | 3.2 | 12.9 | 0.00 | 0.00 | 0.00 | 39 | 1012.7 |
| 20260505221542 | 25 | 229 | 3.2 | 20.9 | 0.00 | 0.00 | 0.00 | 39 | 1012.8 |
| 20260505221032 | 25 | 128 | 4.8 | 20.9 | 0.00 | 0.00 | 0.00 | 38 | 1012.8 |
| 20260505220530 | 25 | 179 | 3.2 | 11.3 | 0.00 | 0.00 | 0.00 | 39 | 1012.8 |
| 20260505220042 | 25 | 215 | 3.2 | 12.9 | 0.00 | 0.00 | 0.00 | 38 | 1012.8 |
| 20260505215530 | 25 | 219 | 8.0 | 16.1 | 0.00 | 0.00 | 0.00 | 38 | 1012.6 |
| 20260505215030 | 26 | 179 | 4.8 | 17.7 | 0.00 | 0.00 | 0.00 | 38 | 1012.7 |
| 20260505214559 | 26 | 219 | 6.4 | 17.7 | 0.00 | 0.00 | 0.00 | 38 | 1012.9 |
| 20260505214030 | 26 | 188 | 6.4 | 19.3 | 0.00 | 0.00 | 0.00 | 38 | 1012.9 |
| 20260505213530 | 26 | 119 | 4.8 | 19.3 | 0.00 | 0.00 | 0.00 | 37 | 1012.9 |
| 20260505213037 | 26 | 99 | 6.4 | 17.7 | 0.00 | 0.00 | 0.00 | 36 | 1012.9 |
| 20260505212531 | 26 | 190 | 6.4 | 17.7 | 0.00 | 0.00 | 0.00 | 37 | 1012.9 |
| 20260505212029 | 26 | 113 | 8.0 | 16.1 | 0.00 | 0.00 | 0.00 | 37 | 1013.1 |
| 20260505211542 | 26 | 132 | 4.8 | 16.1 | 0.00 | 0.00 | 0.00 | 37 | 1013.0 |
| 20260505211030 | 26 | 227 | 6.4 | 22.5 | 0.00 | 0.00 | 0.00 | 36 | 1013.1 |
| 20260505210527 | 26 | 221 | 8.0 | 22.5 | 0.00 | 0.00 | 0.00 | 36 | 1013.1 |
| 20260505210041 | 26 | 194 | 8.0 | 16.1 | 0.00 | 0.00 | 0.00 | 36 | 1013.1 |
| 20260505205528 | 26 | 216 | 3.2 | 19.3 | 0.00 | 0.00 | 0.00 | 37 | 1013.1 |
| 20260505205029 | 26 | 189 | 6.4 | 20.9 | 0.00 | 0.00 | 0.00 | 37 | 1013.2 |
| 20260505204548 | 26 | 253 | 11.3 | 20.9 | 0.00 | 0.00 | 0.00 | 37 | 1013.3 |
| 20260505204031 | 26 | 164 | 4.8 | 17.7 | 0.00 | 0.00 | 0.00 | 37 | 1013.3 |
| 20260505203530 | 26 | 186 | 9.7 | 19.3 | 0.00 | 0.00 | 0.00 | 36 | 1013.3 |
| 20260505203046 | 26 | 191 | 11.3 | 19.3 | 0.00 | 0.00 | 0.00 | 37 | 1013.4 |
| 20260505202530 | 26 | 155 | 8.0 | 19.3 | 0.00 | 0.00 | 0.00 | 38 | 1013.4 |
| 20260505202027 | 26 | 135 | 6.4 | 19.3 | 0.00 | 0.00 | 0.00 | 38 | 1013.4 |
| 20260505201545 | 26 | 169 | 6.4 | 17.7 | 0.00 | 0.00 | 0.00 | 39 | 1013.5 |
| 20260505201028 | 26 | 259 | 6.4 | 14.5 | 0.00 | 0.00 | 0.00 | 37 | 1013.5 |
| 20260505200531 | 26 | 175 | 4.8 | 17.7 | 0.00 | 0.00 | 0.00 | 37 | 1013.6 |
| 20260505200058 | 26 | 255 | 8.0 | 19.3 | 0.00 | 0.00 | 0.00 | 39 | 1013.8 |
| 20260505195530 | 26 | 185 | 4.8 | 19.3 | 0.00 | 0.00 | 0.00 | 38 | 1013.9 |
| 20260505195029 | 26 | 139 | 8.0 | 19.3 | 0.00 | 0.00 | 0.00 | 39 | 1014.0 |
| 20260505194547 | 26 | 149 | 9.7 | 17.7 | 0.00 | 0.00 | 0.00 | 38 | 1014.2 |
| 20260505194031 | 26 | 152 | 8.0 | 17.7 | 0.00 | 0.00 | 0.00 | 37 | 1014.2 |
| 20260505193530 | 26 | 75 | 4.8 | 20.9 | 0.00 | 0.00 | 0.00 | 38 | 1014.4 |
| 20260505193051 | 26 | 186 | 4.8 | 22.5 | 0.00 | 0.00 | 0.00 | 37 | 1014.3 |
| 20260505192533 | 26 | 159 | 8.0 | 22.5 | 0.00 | 0.00 | 0.00 | 38 | 1014.5 |
| 20260505192030 | 26 | 240 | 9.7 | 22.5 | 0.00 | 0.00 | 0.00 | 38 | 1014.3 |
| 20260505191537 | 26 | 205 | 9.7 | 22.5 | 0.00 | 0.00 | 0.00 | 37 | 1014.3 |
| 20260505191030 | 26 | 218 | 9.7 | 22.5 | 0.00 | 0.00 | 0.00 | 37 | 1014.4 |
| 20260505190528 | 26 | 150 | 6.4 | 22.5 | 0.00 | 0.00 | 0.00 | 36 | 1014.5 |
| 20260505190037 | 26 | 214 | 9.7 | 17.7 | 0.00 | 0.00 | 0.00 | 38 | 1014.5 |
| 20260505185528 | 26 | 178 | 6.4 | 24.1 | 0.00 | 0.00 | 0.00 | 38 | 1014.4 |
| 20260505185030 | 26 | 188 | 6.4 | 24.1 | 0.00 | 0.00 | 0.00 | 38 | 1014.5 |
| 20260505184542 | 26 | 98 | 9.7 | 20.9 | 0.00 | 0.00 | 0.00 | 36 | 1014.5 |
| 20260505184031 | 26 | 217 | 6.4 | 16.1 | 0.00 | 0.00 | 0.00 | 38 | 1014.7 |
| 20260505183531 | 26 | 128 | 6.4 | 29.0 | 0.00 | 0.00 | 0.00 | 38 | 1014.6 |
| 20260505183041 | 26 | 223 | 12.9 | 29.0 | 0.00 | 0.00 | 0.00 | 38 | 1014.6 |
| 20260505182527 | 26 | 146 | 8.0 | 17.7 | 0.00 | 0.00 | 0.00 | 38 | 1014.6 |
| 20260505182028 | 26 | 239 | 6.4 | 16.1 | 0.00 | 0.00 | 0.00 | 37 | 1014.8 |
| 20260505181543 | 26 | 218 | 6.4 | 20.9 | 0.00 | 0.00 | 0.00 | 38 | 1014.8 |
| 20260505181029 | 26 | 217 | 11.3 | 30.6 | 0.00 | 0.00 | 0.00 | 37 | 1015.0 |
| 20260505180529 | 27 | 201 | 11.3 | 30.6 | 0.00 | 0.00 | 0.00 | 37 | 1015.1 |
| 20260505180104 | 26 | 229 | 8.0 | 20.9 | 0.00 | 0.00 | 0.00 | 39 | 1015.0 |
| 20260505175530 | 26 | 209 | 9.7 | 17.7 | 0.00 | 0.00 | 0.00 | 39 | 1015.2 |
| 20260505175034 | 26 | 222 | 8.0 | 27.4 | 0.00 | 0.00 | 0.00 | 39 | 1015.2 |
| 20260505174558 | 26 | 198 | 11.3 | 27.4 | 0.00 | 0.00 | 0.00 | 39 | 1015.2 |
| 20260505174030 | 26 | 212 | 8.0 | 22.5 | 0.00 | 0.00 | 0.00 | 38 | 1015.2 |
| 20260505173533 | 26 | 215 | 3.2 | 19.3 | 0.00 | 0.00 | 0.00 | 39 | 1015.4 |
| 20260505173045 | 26 | 209 | 9.7 | 19.3 | 0.00 | 0.00 | 0.00 | 40 | 1015.5 |
| 20260505172531 | 26 | 114 | 4.8 | 16.1 | 0.00 | 0.00 | 0.00 | 42 | 1015.4 |
| 20260505172035 | 26 | 229 | 6.4 | 17.7 | 0.00 | 0.00 | 0.00 | 41 | 1015.5 |
| 20260505171540 | 26 | 209 | 9.7 | 17.7 | 0.00 | 0.00 | 0.00 | 41 | 1015.5 |
| 20260505171031 | 26 | 205 | 8.0 | 19.3 | 0.00 | 0.00 | 0.00 | 41 | 1015.5 |
| 20260505170531 | 26 | 249 | 9.7 | 27.4 | 0.00 | 0.00 | 0.00 | 41 | 1015.6 |
| 20260505170039 | 26 | 207 | 9.7 | 27.4 | 0.00 | 0.00 | 0.00 | 39 | 1015.5 |
| 20260505165534 | 26 | 218 | 14.5 | 27.4 | 0.00 | 0.00 | 0.00 | 39 | 1015.6 |
| 20260505165033 | 26 | 193 | 12.9 | 27.4 | 0.00 | 0.00 | 0.00 | 39 | 1015.5 |
| 20260505164545 | 26 | 196 | 9.7 | 25.7 | 0.00 | 0.00 | 0.00 | 41 | 1015.5 |
| 20260505164030 | 25 | 198 | 8.0 | 25.7 | 0.00 | 0.00 | 0.00 | 40 | 1015.4 |
| 20260505163531 | 25 | 180 | 9.7 | 22.5 | 0.00 | 0.00 | 0.00 | 41 | 1015.4 |
| 20260505163041 | 26 | 210 | 6.4 | 22.5 | 0.00 | 0.00 | 0.00 | 42 | 1015.4 |
| 20260505162530 | 26 | 217 | 9.7 | 20.9 | 0.00 | 0.00 | 0.00 | 44 | 1015.4 |
| 20260505162029 | 26 | 205 | 9.7 | 22.5 | 0.00 | 0.00 | 0.00 | 44 | 1015.4 |
| 20260505161540 | 25 | 201 | 9.7 | 22.5 | 0.00 | 0.00 | 0.00 | 45 | 1015.5 |
| 20260505161033 | 25 | 180 | 9.7 | 27.4 | 0.00 | 0.00 | 0.00 | 44 | 1015.5 |
| 20260505160530 | 25 | 219 | 8.0 | 27.4 | 0.00 | 0.00 | 0.00 | 43 | 1015.6 |
| 20260505153043 | 23 | 167 | 3.2 | 11.3 | 0.00 | 0.00 | 0.00 | 52 | 1015.8 |
| 20260505152535 | 23 | 146 | 3.2 | 12.9 | 0.00 | 0.00 | 0.00 | 53 | 1015.9 |
| 20260505152029 | 22 | 171 | 4.8 | 12.9 | 0.00 | 0.00 | 0.00 | 54 | 1015.7 |
| 20260505151540 | 22 | 271 | 0.0 | 6.4 | 0.00 | 0.00 | 0.00 | 57 | 1015.6 |
| 20260505151033 | 22 | 267 | 1.6 | 6.4 | 0.00 | 0.00 | 0.00 | 56 | 1015.8 |
| 20260505150534 | 22 | 0 | 1.6 | 6.4 | 0.00 | 0.00 | 0.00 | 56 | 1015.8 |
| 20260505140529 | 18 | 300 | 1.6 | 4.8 | 0.00 | 0.00 | 0.00 | 66 | 1016.0 |
| 20260505125031 | 14 | 53 | 1.6 | 4.8 | 0.00 | 0.00 | 0.00 | 77 | 1015.5 |
| 20260505124540 | 13 | 54 | 1.6 | 4.8 | 0.00 | 0.00 | 0.00 | 78 | 1015.4 |
| 20260505124029 | 13 | 0 | 0.0 | 0.0 | 0.00 | 0.00 | 0.00 | 79 | 1015.4 |
| 20260505123533 | 13 | 0 | 0.0 | 3.2 | 0.00 | 0.00 | 0.00 | 80 | 1015.5 |
| 20260505123038 | 13 | 0 | 0.0 | 4.8 | 0.00 | 0.00 | 0.00 | 80 | 1015.4 |
| 20260505122536 | 12 | 0 | 1.6 | 6.4 | 0.00 | 0.00 | 0.00 | 80 | 1015.3 |
| 20260505122035 | 12 | 56 | 1.6 | 6.4 | 0.00 | 0.00 | 0.00 | 81 | 1015.2 |
| 20260505121536 | 12 | 156 | 1.6 | 6.4 | 0.00 | 0.00 | 0.00 | 83 | 1015.3 |
| 20260505121033 | 11 | 0 | 0.0 | 4.8 | 0.00 | 0.00 | 0.00 | 84 | 1015.3 |
| 20260505120530 | 11 | 0 | 0.0 | 0.0 | 0.00 | 0.00 | 0.00 | 85 | 1015.3 |
| 20260505120044 | 11 | 0 | 0.0 | 0.0 | 0.00 | 0.00 | 0.00 | 85 | 1015.2 |
| 20260505115531 | 11 | 0 | 0.0 | 0.0 | 0.00 | 0.00 | 0.00 | 85 | 1015.2 |
| 20260505115035 | 10 | 0 | 0.0 | 0.0 | 0.00 | 0.00 | 0.00 | 85 | 1015.2 |
| 20260505114540 | 10 | 0 | 0.0 | 0.0 | 0.00 | 0.00 | 0.00 | 85 | 1015.1 |
| 20260505114032 | 10 | 0 | 0.0 | 0.0 | 0.00 | 0.00 | 0.00 | 85 | 1015.0 |
| 20260505113530 | 10 | 0 | 0.0 | 0.0 | 0.00 | 0.00 | 0.00 | 85 | 1014.8 |
| 20260505113037 | 10 | 0 | 0.0 | 0.0 | 0.00 | 0.00 | 0.00 | 85 | 1014.7 |
| 20260505112534 | 10 | 0 | 0.0 | 0.0 | 0.00 | 0.00 | 0.00 | 85 | 1014.6 |
| 20260505112032 | 10 | 0 | 0.0 | 0.0 | 0.00 | 0.00 | 0.00 | 85 | 1014.5 |
| 20260505111544 | 9 | 0 | 0.0 | 3.2 | 0.00 | 0.00 | 0.00 | 84 | 1014.4 |
| 20260505111032 | 9 | 0 | 0.0 | 3.2 | 0.00 | 0.00 | 0.00 | 84 | 1014.3 |
| 20260505110530 | 9 | 173 | 1.6 | 3.2 | 0.00 | 0.00 | 0.00 | 84 | 1014.3 |
| 20260505102032 | 10 | 0 | 0.0 | 3.2 | 0.00 | 0.00 | 0.00 | 83 | 1014.2 |
| 20260505101537 | 10 | 0 | 0.0 | 3.2 | 0.00 | 0.00 | 0.00 | 83 | 1014.1 |
| 20260505101029 | 10 | 173 | 1.6 | 3.2 | 0.00 | 0.00 | 0.00 | 82 | 1014.1 |
| 20260505100529 | 10 | 0 | 0.0 | 1.6 | 0.00 | 0.00 | 0.00 | 82 | 1014.2 |
| 20260505100044 | 10 | 0 | 0.0 | 1.6 | 0.00 | 0.00 | 0.00 | 82 | 1014.3 |
| 20260505095532 | 10 | 0 | 0.0 | 3.2 | 0.00 | 0.00 | 0.00 | 82 | 1014.4 |
| 20260505095033 | 10 | 0 | 0.0 | 3.2 | 0.00 | 0.00 | 0.00 | 81 | 1014.5 |
| 20260505094544 | 10 | 0 | 0.0 | 0.0 | 0.00 | 0.00 | 0.00 | 82 | 1014.5 |
| 20260505094031 | 10 | 0 | 0.0 | 1.6 | 0.00 | 0.00 | 0.00 | 82 | 1014.3 |
| 20260505093529 | 10 | 0 | 0.0 | 1.6 | 0.00 | 0.00 | 0.00 | 82 | 1014.2 |
| 20260505093043 | 10 | 0 | 0.0 | 1.6 | 0.00 | 0.00 | 0.00 | 81 | 1014.2 |
| 20260505092531 | 10 | 0 | 0.0 | 1.6 | 0.00 | 0.00 | 0.00 | 81 | 1014.1 |
| 20260505092033 | 10 | 0 | 0.0 | 1.6 | 0.00 | 0.00 | 0.00 | 82 | 1014.2 |
| 20260505091601 | 10 | 0 | 0.0 | 1.6 | 0.00 | 0.00 | 0.00 | 81 | 1014.0 |
| 20260505091029 | 10 | 0 | 0.0 | 0.0 | 0.00 | 0.00 | 0.00 | 81 | 1014.2 |
| 20260505090530 | 10 | 0 | 0.0 | 0.0 | 0.00 | 0.00 | 0.00 | 81 | 1014.3 |
| 20260505090044 | 10 | 0 | 0.0 | 0.0 | 0.00 | 0.00 | 0.00 | 81 | 1014.5 |
| 20260505085532 | 10 | 0 | 0.0 | 0.0 | 0.00 | 0.00 | 0.00 | 81 | 1014.4 |
| 20260505085030 | 10 | 0 | 0.0 | 0.0 | 0.00 | 0.00 | 0.00 | 81 | 1014.4 |